Back to catalog

STARLINK-37654

AliveCommunicationsSSO
NORAD 69141·PAYLOAD·🇺🇸 United States

Launched May 20, 2026 from Vandenberg Space Force Base

Loading…

Next Passes (next 24 hours)

TLE

FreshSource: CelesTrak SupGP

Epoch: Sep 15, 2026, 03:48 UTC

1 69141C 26110T   26258.15881944 -.00055453  00000+0 -17215-2 0  2583
2 69141  97.2849  93.3301 0001760  92.3884 137.5456 15.33465698    11

Track STARLINK-37654 in real time with AllMySat

Download on the App Store